Flag for Brazil Weather past 2 weeks in Sorocaba, São Paulo, Brazil

Now
57 °F

More clouds than sun.


Feels Like: 55 °F
Forecast: 49 / 67 °F
Wind: 9 mph from West

Location: Campinas Aeroporto

Current Time: Jul 25, 2014 at 6:57:55 AM

Latest Report: Jul 25, 2014 at 6:00 AM


Visibility: N/A

Pressure: 30.09 "Hg

Humidity: 94%

Dew point: 55 °F

Location of SorocabaLocation

Historic Weather in Sorocaba — Graph

°F

Sorocaba temperature yesterday

Maximum temperature yesterday: 75 °F (at 12:00 PM)
Minimum temperature yesterday: 63 °F (at 6:00 AM)
Average temperature yesterday: 66 °F

Past Weeks' High & Low Weather Summary

 TemperatureHumidityPressure
High81 °F (Jul 17, 2:00 PM)100% (Jul 10, 6:00 AM)30.36 "Hg (Jul 10, 6:00 AM)
Low50 °F (Jul 20, 7:00 AM)24% (Jul 21, 4:00 PM)30.01 "Hg (Jul 24, 2:00 AM)
Average64 °F66%30.20 "Hg
* Reported Jul 10 6:00 AM — Jul 25 6:00 AM, Sorocaba, Weather by CustomWeather, © 2014

Note: Actual official high and low records may vary slightly from our data, if they occured in-between our weather recording intervals... More about our weather records

Advertising

Sorocaba weather history for previous 24 hours

 ConditionsComfort  
Time TempWeatherWind HumidityBarometerVisibility
6:00 AM
Jul 25
57 °FMore clouds than sun.9 mph94%30.09 "HgN/A
5:00 AM59 °FMostly cloudy.8 mph94%30.07 "HgN/A
4:00 AM59 °FMostly cloudy.14 mph100%30.07 "HgN/A
3:00 AM61 °FLight rain. Mostly cloudy.12 mph94%30.07 "Hg4 mi
2:00 AM61 °FLight rain. Fog.16 mph100%30.04 "Hg3 mi
1:00 AM63 °FDrizzle. Mostly cloudy.10 mph94%30.04 "Hg5 mi
12:00 AM63 °FOvercast.12 mph94%30.04 "HgN/A
11:00 PM
Jul 24
63 °FPassing clouds.12 mph94%30.07 "HgN/A
10:00 PM63 °FMostly cloudy.13 mph94%30.04 "Hg5 mi
9:00 PM63 °FLight rain. Mostly cloudy.13 mph94%30.04 "Hg4 mi
8:00 PM63 °FLight rain. Mostly cloudy.13 mph94%30.07 "Hg4 mi
7:00 PM63 °FLight rain. Fog.10 mph94%N/A2 mi
6:00 PM63 °FLight rain. Fog.12 mph94%N/A2 mi
5:00 PM63 °FLight rain. Fog.10 mph94%30.04 "Hg2 mi
4:00 PM63 °FLight rain. Fog.8 mph94%N/A2 mi
3:00 PM63 °FLight rain. Fog.12 mph88%N/A2 mi
2:00 PM68 °FLight rain. Partly sunny.16 mph64%30.04 "Hg5 mi
1:00 PM73 °FPartly sunny.13 mph47%30.01 "HgN/A
12:00 PM75 °FBroken clouds.13 mph41%30.04 "HgN/A
11:00 AM73 °FScattered showers. Broken clouds.16 mph44%30.04 "HgN/A
10:00 AM70 °FBroken clouds.12 mph50%30.01 "HgN/A
9:00 AM70 °FPartly sunny.12 mph46%30.04 "HgN/A
8:00 AM64 °FScattered clouds.6 mph60%30.04 "Hg5 mi
7:00 AM63 °FSunny.6 mph59%30.04 "Hg10 mi
6:00 AM63 °FSunny.5 mph59%30.01 "Hg10 mi
Weather by CustomWeather, © 2014

See weather overviewHow to use our weather pages